Regional Weather Roundup
Issued by NWS Boston, MA

Home | Current Version | Previous Version | Text Only | Print | Product List | Glossary On
Versions: 1 2 3 4 5 6 7 8 9 10 11 12 13 14 15 16 17 18 19 20 21 22 23 24 25 26 27 28 29 30 31 32 33 34 35 36 37 38 39 40 41 42 43 44 45 46 47 48 49 50
000
ASUS41 KBOX 300110
RWRBOX

REGIONAL WEATHER ROUNDUP
NATIONAL WEATHER SERVICE TAUNTON MA
900 PM EDT TUE JUL 29 2014

NOTE:  "FAIR" INDICATES FEW OR NO CLOUDS BELOW 12,000 FEET WITH NO
SIGNIFICANT WEATHER AND/OR OBSTRUCTIONS TO VISIBILITY.  THE FOLLOWING
OBSERVATION LOCATIONS DO NOT REPORT PRESENT WEATHER...PROVINCETOWN...
SMITHFIELD...BLOCK ISLAND...KEENE...AND OXFORD.

MAZALL-300200-
EASTERN MASSACHUSETTS

CITY           SKY/WX    TMP DP  RH WIND       PRES   REMARKS
BOSTON         MOCLDY    67  59  75 CALM      29.91R
BEVERLY        CLOUDY    66  59  78 CALM      29.91R
LAWRENCE       CLOUDY    69  61  75 S3        29.93R
BEDFORD        CLOUDY    66  59  78 SW5       29.91R
BLUE HILL        N/A     67  56  67 W7        29.92R
NORWOOD        CLOUDY    70  56  61 SW7       29.91R
MARSHFIELD     PTCLDY    66  64  94 CALM      29.92S
PLYMOUTH       CLEAR     67  58  72 SW5       29.92R
TAUNTON        CLEAR     62  58  86 SE3       29.91R
NEW BEDFORD    CLEAR     66  59  78 SW3       29.91R
$$

MAZALL-300200-
CAPE COD AND THE ISLANDS

CITY           SKY/WX    TMP DP  RH WIND       PRES   REMARKS
FALMOUTH       CLEAR     66  61  82 SW8       29.92S
HYANNIS        CLEAR     69  61  75 SW12      29.91S
CHATHAM        CLEAR     68  61  78 SW8       29.93S
PROVINCETOWN   CLEAR     70  61  73 SW9       29.91S
NANTUCKET      CLEAR     65  61  87 W8        29.93S
MARTHAS VNYRD  CLEAR     64  61  90 SW6       29.93R
$$

MAZALL-300200-
CENTRAL AND WESTERN MASSACHUSETTS

CITY           SKY/WX    TMP DP  RH WIND       PRES   REMARKS
WORCESTER      PTCLDY    63  53  70 W6        29.95R
FITCHBURG      CLOUDY    69  56  62 NW3       29.93R
ORANGE         CLOUDY    62  59  90 CALM      29.94R
SPRINGFIELD    PTCLDY    61  55  81 NE2       29.93R
WESTFIELD      CLEAR     61  56  83 CALM      29.93R
NORTH ADAMS    PTCLDY    58  56  93 CALM      29.95R
PITTSFIELD     CLEAR     58  54  86 CALM      29.95R
$$

RIZALL-300200-
RHODE ISLAND

CITY           SKY/WX    TMP DP  RH WIND       PRES   REMARKS
PROVIDENCE     PTCLDY    69  56  62 W6        29.93R
NEWPORT        CLEAR     68  60  75 SW3       29.93R
BLOCK ISLAND   CLEAR     68  57  68 SW9       29.94S
SMITHFIELD     MOCLDY    61  52  72 CALM      29.93S
WESTERLY       CLEAR     68  61  78 CALM      29.94R
$$

CTZALL-300200-
CONNECTICUT

CITY           SKY/WX    TMP DP  RH WIND       PRES   REMARKS
BRADLEY INTL   MOCLDY    66  55  67 NW5       29.93R
HARTFORD       CLOUDY    71  49  45 CALM      29.93R
BRIDGEPORT     CLOUDY    71  54  54 NW5       29.94R
DANBURY        CLOUDY    64  56  75 SW5       29.97R
GROTON         CLEAR     67  57  70 CALM      29.92S
NEW HAVEN      MOCLDY    72  54  53 NW3       29.94R
CHESTER        MOCLDY    66  57  72 CALM      29.95R
MERIDEN        MOCLDY    65  58  78 CALM      29.94R
WILLIMANTIC    PTCLDY    65  58  78 CALM      29.94R
OXFORD         MOCLDY    64  55  72 CALM      29.97R
$$

MEZ002-015-021-024-NHZ003-005-008-011-012-014-VTZ005-008-300200-
NORTHERN NEW ENGLAND

CITY           SKY/WX    TMP DP  RH WIND       PRES   REMARKS
PORTLAND ME    MOCLDY    65  57  75 S5        29.91R
BANGOR ME      PTCLDY    62  56  80 CALM      29.92R
CONCORD NH     CLEAR     59  57  93 SE3       29.92R
MANCHESTER NH  MOCLDY    71  53  52 CALM      29.90R
NASHUA NH      MOCLDY    66  61  84 CALM      29.92R
PORTSMOUTH NH  MOCLDY    65  59  78 SE5       29.91R
JAFFREY NH     CLOUDY    61  57  87 CALM      29.95R
KEENE NH       MOCLDY    61  50  67 CALM      29.94R
BURLINGTON VT  PTCLDY    63  53  70 CALM      29.94R
MT. WASHINGTON FOG       41  41 100 SW9         N/A  VSB 1/4
$$

NYZ052-076-300200-
EASTERN NEW YORK

CITY           SKY/WX    TMP DP  RH WIND       PRES   REMARKS
ALBANY         MOCLDY    66  53  63 W6        29.94R
NEW YORK CITY  MOCLDY    72  50  45 NW7       29.94R
$$

ANZALL-300200-
MARINE OBSERVATIONS

STATION/POSITION TIME  TEMP    WIND        PRES    VSBY  WAVE
                       AIR SEA DIR/SP/G                  HT/PER
                 (UTC) (F)     (DEG/KT/KT) (MB)    (MI)  (FT/S)
BOSTON BUOY      NOT AVBL
BUZZARDS BAY     NOT AVBL
NANTUCKET SOUND  NOT AVBL
MASS BAY-STELLWA NOT AVBL
ISLE OF SHOALS   NOT AVBL
S OF BLOCK IS    NOT AVBL
$$

......................KEY.........................
  SKY/WX - SKY CONDITION/PRESENT WEATHER
  TMP    - TEMPERATURE IN FAHRENHEIT
  DWPT   - DEWPOINT IN FAHRENHEIT
  RH     - RELATIVE HUMIDITY IN PERCENT
  WIND   - DIRECTION AND SPEED IN MPH
  PRES   - MEAN SEA LEVEL PRESSURE IN INCHES OF HG
  WCI    - WIND CHILL INDEX
  VSB    - VISIBILITY IN MILES
  HX     - HEAT INDEX
  TC     - TEMPERATURE IN CELSIUS
  VRB    - VARIABLE WIND DIRECTION
  N/A    - NOT AVAILABLE


USA.gov is the U.S. government's official web portal to all federal, state and local government web resources and services.